Wind_Speed
58 62 66 69 74 77 80 78 73 69 67 66 59 45 31 26 26 26 24 30 30 34 30 33 30 31 33 33 30 26 16 13 18 15 1 2 7 3 10 32 32 39 52 65 59 49 48 42 40 42 34 25 21 29
59 63 66 71 75 77 77 74 70 68 66 64 55 43 32 25 26 24 20 25 29 37 36 30 23 28 28 25 22 14 10 12 11 8 10 10 10 8 14 26 27 31 47 46 66 54 36 31 33 37 35 30 24 23
60 63 67 72 75 76 73 71 68 67 66 62 49 36 31 23 23 26 24 21 24 34 21 16 25 25 27 11 6 5 3 5 5 6 7 2 6 11 16 19 19 29 38 59 65 58 32 24 20 23 20 25 29 28
60 64 68 72 74 72 69 68 66 66 65 59 45 35 31 28 26 25 26 24 26 30 17 6 8 7 5 8 6 6 8 7 6 5 6 5 9 10 12 15 23 33 38 57 64 53 36 27 31 28 24 13 20 28
61 66 69 73 74 70 68 67 65 64 63 53 39 34 32 33 28 23 23 25 26 19 7 9 10 3 5 6 3 8 8 7 7 7 3 5 8 11 17 15 21 24 30 52 67 59 32 25 28 18 16 24 22 22
63 67 71 73 71 67 67 66 63 62 58 46 34 29 33 36 25 17 17 21 24 16 5 8 6 2 4 4 2 5 3 1 3 3 4 4 9 12 16 16 24 19 25 41 51 53 29 25 24 28 28 29 28 24
65 68 72 71 68 65 64 64 60 60 52 37 26 27 30 31 23 11 7 13 10 5 9 10 8 2 5 2 1 1 1 2 1 1 2 5 12 14 18 23 22 18 21 28 44 44 35 26 23 26 30 31 29 27
67 70 72 69 65 63 62 61 58 56 43 27 22 27 27 26 15 7 6 8 7 12 13 15 8 4 4 3 2 2 2 1 2 2 3 8 13 17 17 16 21 23 22 27 28 38 33 28 25 35 33 31 31 29
68 71 71 67 63 61 60 57 56 51 35 20 20 25 23 19 11 8 9 11 15 15 18 12 8 8 7 5 4 5 6 5 5 5 8 13 18 19 17 20 20 13 20 23 30 38 29 31 37 39 36 30 26 28
70 72 68 63 60 59 57 54 53 43 27 17 21 21 15 10 6 8 10 13 15 19 15 11 10 10 7 6 6 7 8 5 6 6 8 15 15 17 18 9 12 15 12 23 26 34 32 32 27 37 39 35 31 29
70 70 65 58 58 57 54 51 51 36 18 16 19 16 9 6 4 6 10 13 16 19 13 12 12 12 9 8 6 6 6 6 6 8 9 10 9 10 11 14 14 11 9 17 29 25 31 37 37 26 22 27 32 32
69 66 60 56 55 54 50 49 47 32 16 13 15 11 8 7 2 3 8 13 19 20 12 14 14 13 10 7 5 5 4 6 2 5 10 9 9 9 11 19 13 10 7 19 24 28 25 29 26 21 23 23 27 26
66 61 56 53 53 52 47 47 44 28 13 13 13 9 8 6 3 3 8 11 17 20 13 15 16 14 10 8 6 5 5 4 5 8 8 10 13 13 14 13 14 18 18 19 20 22 25 23 19 20 26 27 27 29
59 56 52 50 50 50 45 45 41 21 12 11 7 9 8 6 2 4 6 10 20 18 15 15 18 16 12 9 6 6 6 9 7 8 11 17 21 20 19 19 17 16 16 17 18 18 19 19 18 18 18 18 19 20
55 50 49 48 47 46 41 43 39 15 10 6 8 8 9 5 2 4 7 13 18 17 16 18 18 17 14 10 9 9 14 13 12 11 16 21 23 23 23 23 23 22 22 20 18 17 16 15 14 14 15 16 16 17
50 46 44 44 45 42 39 41 35 12 7 7 9 8 7 2 2 7 9 10 16 16 17 20 18 17 15 12 10 9 12 15 13 16 20 23 23 22 21 20 19 19 19 18 16 15 14 13 12 11 10 11 13 14
47 44 42 42 42 39 37 38 32 13 8 5 7 7 7 4 2 8 6 11 13 15 16 21 19 17 17 14 11 9 10 14 14 19 23 23 22 20 18 17 16 15 13 12 10 8 7 7 8 9 10 11 12 13
43 41 39 39 39 36 35 34 27 14 7 7 7 7 5 4 4 7 5 8 11 14 15 18 20 19 16 15 15 14 13 17 17 20 21 21 20 17 15 14 13 11 9 7 7 7 7 8 9 11 12 14 15 18
41 37 36 36 36 33 30 30 24 11 7 7 6 6 6 4 3 6 5 7 10 11 15 17 17 19 18 15 16 18 23 22 19 18 18 17 15 14 13 12 12 11 10 10 9 9 9 10 12 14 15 18 20 22
38 35 33 34 33 28 25 26 23 12 7 8 4 7 5 3 3 4 6 7 9 11 14 15 16 18 18 18 21 27 28 26 23 21 18 16 14 14 14 13 13 12 10 8 6 7 9 12 15 18 21 24 27 30
35 32 31 33 29 24 22 23 20 12 5 8 7 7 5 5 3 3 4 5 9 12 13 14 17 18 22 26 29 28 25 23 21 18 18 20 19 18 16 13 10 7 5 6 9 12 15 19 22 25 29 32 34 36
30 29 29 28 24 18 19 19 18 9 3 3 5 9 16 18 15 14 13 15 6 12 16 20 25 29 30 29 27 25 23 21 22 23 22 19 15 12 9 6 5 8 11 14 17 21 24 27 30 34 36 38 38 38
29 27 26 23 20 15 16 16 16 7 3 5 7 19 19 17 20 18 11 9 12 20 26 29 30 29 28 26 24 25 25 23 20 17 14 12 9 6 6 8 12 16 20 23 25 29 32 35 37 37 34 31 29 26
25 24 22 18 16 14 15 14 14 11 7 8 9 12 16 18 17 11 12 14 17 20 23 24 24 24 26 26 24 22 19 17 14 11 9 6 6 8 13 17 21 24 27 31 34 33 32 30 26 21 19 18 20 20
24 21 17 15 15 13 13 13 13 10 5 14 12 13 14 16 14 15 14 15 17 18 20 21 21 22 22 21 18 15 12 9 8 7 6 9 13 17 20 23 27 32 33 30 23 20 18 14 13 14 16 17 16 15
16 16 15 15 13 12 12 12 11 9 4 7 16 15 15 14 16 20 19 17 16 16 17 19 20 20 19 16 13 12 10 8 7 9 12 15 19 22 25 29 28 23 19 15 12 11 11 11 13 13 13 12 13 14
17 15 14 11 10 9 11 10 10 8 4 4 9 16 18 17 16 16 17 16 16 17 18 19 19 18 17 15 14 12 11 11 12 15 19 22 25 27 27 22 15 14 12 11 10 9 10 12 11 12 12 13 13 10
16 13 11 9 8 10 10 9 9 5 4 2 2 8 18 19 19 17 16 17 17 17 17 17 17 16 16 16 15 15 15 16 19 21 24 25 23 19 16 14 13 12 10 9 9 11 11 10 10 10 12 11 6 6
17 14 10 10 10 9 9 8 8 5 6 4 3 5 9 16 17 16 15 14 15 15 16 15 16 16 16 17 18 18 19 21 23 22 19 16 12 10 10 10 10 10 10 10 11 11 9 8 8 10 11 6 4 8
15 13 9 8 8 8 9 8 7 5 8 7 6 7 10 11 14 15 15 14 14 14 14 15 15 16 17 18 19 19 20 19 16 12 9 6 6 6 7 7 7 8 9 10 10 8 7 7 7 8 7 3 6 10
12 11 10 9 10 10 8 8 7 7 9 8 6 7 9 11 13 13 13 13 14 14 15 15 16 17 17 17 16 16 13 11 9 6 5 4 4 5 7 9 11 11 10 9 8 7 6 6 6 7 5 3 7 11
11 10 13 14 12 10 7 7 4 10 8 6 5 6 9 10 10 10 10 10 10 10 9 9 10 11 11 11 10 10 9 7 6 6 5 4 6 8 8 8 9 10 11 11 9 6 6 6 6 7 5 4 7 12
10 8 8 9 7 6 6 5 8 12 8 4 4 7 8 8 10 10 9 9 9 8 8 9 9 9 9 9 9 8 7 7 8 8 8 9 9 11 13 14 13 12 11 11 10 8 6 6 7 8 7 6 8 12
Wind_Direction
320 321 323 326 329 330 330 328 326 329 332 330 330 329 319 310 306 302 298 289 285 282 289 296 290 293 291 287 290 298 296 281 269 269 234 72 122 170 232 216 212 221 223 219 208 210 217 221 224 221 223 220 219 216
321 323 326 329 331 331 330 327 329 332 333 331 330 329 319 309 300 300 303 299 292 287 286 288 298 287 282 294 303 308 279 263 261 224 187 159 187 208 196 180 200 221 219 223 210 212 210 216 221 223 220 227 211 211
322 326 329 331 331 332 329 329 332 334 333 333 332 327 325 312 294 291 284 281 287 292 299 304 278 280 292 329 324 155 19 241 193 195 204 259 214 194 199 183 202 222 207 214 217 217 196 179 196 209 225 237 231 210
325 328 330 331 332 331 328 331 335 334 335 334 332 327 324 315 304 296 275 267 275 289 312 268 308 308 29 12 57 140 183 167 193 233 235 241 232 236 226 219 212 215 203 208 210 207 197 190 216 212 191 192 223 224
327 329 331 333 332 330 331 335 336 335 336 334 332 326 330 325 299 290 271 258 267 277 201 278 276 54 21 335 106 145 161 173 197 229 249 191 198 228 208 218 201 203 203 203 208 203 193 192 208 203 202 203 201 216
328 330 332 333 332 331 334 336 336 337 337 335 334 334 339 336 330 267 260 251 251 263 236 200 175 103 315 344 126 164 175 176 138 163 181 178 211 208 196 199 187 183 190 194 201 196 181 165 174 185 190 196 195 199
330 332 333 333 333 334 335 337 337 338 337 337 339 343 344 342 337 323 261 220 223 181 186 160 141 207 262 288 289 93 25 315 158 119 244 211 208 202 181 183 184 156 171 183 199 200 202 199 197 189 192 198 194 192
331 333 334 333 334 334 337 338 338 340 339 339 348 354 353 357 5 40 114 141 145 155 154 153 157 206 181 171 143 79 123 192 226 162 232 183 192 181 172 164 172 168 158 160 164 192 193 190 201 197 199 201 195 193
333 333 334 335 334 336 339 339 340 341 340 340 355 353 353 4 26 75 101 125 147 155 154 152 166 185 157 120 96 106 138 148 163 187 145 155 167 164 157 157 154 151 146 160 174 181 189 190 198 201 199 201 202 198
333 333 335 335 335 339 339 340 341 342 340 348 352 349 349 6 58 104 120 140 151 155 158 166 164 167 143 124 101 99 112 112 129 118 119 151 156 158 155 138 163 157 197 184 191 200 201 199 191 202 209 214 216 217
333 334 335 335 337 339 340 341 342 342 335 346 351 348 352 22 79 125 151 160 159 159 163 172 164 159 149 133 109 105 106 112 100 130 145 142 163 160 171 165 161 177 187 204 188 192 201 203 212 195 209 210 209 214
334 335 334 337 337 339 342 341 342 340 331 346 349 345 349 355 6 165 174 167 170 170 168 167 164 160 158 150 120 103 83 110 114 147 159 158 136 164 175 189 188 183 176 151 177 172 180 191 206 216 216 221 218 218
335 334 335 337 337 341 343 341 342 338 332 339 332 342 352 355 331 197 177 176 177 180 167 166 167 163 167 159 118 88 122 107 125 140 170 176 161 148 146 158 161 140 148 151 165 175 188 191 194 199 202 204 205 207
334 334 334 336 340 343 342 341 342 333 328 321 336 351 347 337 312 198 188 187 180 184 179 174 176 170 174 160 129 119 142 138 127 135 136 141 144 145 147 147 143 149 147 139 141 146 149 153 168 180 186 194 205 210
334 333 333 336 340 342 341 342 343 328 314 316 344 335 349 331 242 194 194 184 185 186 185 182 182 180 184 169 147 146 151 154 161 150 143 139 133 131 131 131 132 133 134 134 138 140 143 151 161 169 178 190 199 207
334 332 332 336 339 344 342 343 344 331 332 331 328 331 347 350 214 178 177 185 187 194 188 182 181 184 188 185 179 167 149 158 156 157 148 139 132 129 130 132 134 136 136 135 138 141 147 154 165 178 191 207 217 225
332 332 333 338 340 345 343 344 346 333 325 308 303 307 342 7 168 174 178 182 191 194 191 184 184 186 184 187 182 174 162 162 160 157 147 136 131 133 139 141 142 145 148 150 152 160 175 191 209 224 233 241 247 252
332 332 335 337 340 343 343 346 347 345 328 307 291 307 327 11 164 183 180 185 191 195 194 190 187 187 184 181 178 174 168 168 167 160 150 145 147 153 158 161 161 162 162 165 175 192 204 214 225 234 241 248 254 259
330 331 335 336 340 344 343 349 354 352 339 326 292 296 320 357 157 185 201 190 194 200 197 187 185 191 188 183 177 169 164 163 162 157 151 151 157 160 159 158 158 161 166 175 184 194 213 234 245 252 258 264 267 270
328 330 333 334 340 342 343 351 357 349 344 348 302 316 314 3 132 181 195 195 196 194 189 187 177 180 181 180 174 165 165 166 162 157 155 157 161 164 169 173 173 170 168 176 202 229 247 261 271 277 280 281 282 284
325 327 328 332 336 342 347 351 354 355 332 4 5 359 2 40 77 150 169 185 189 188 185 182 171 168 170 167 162 160 158 155 155 158 162 169 172 165 154 152 150 164 200 241 259 271 278 283 286 285 284 286 289 290
321 320 321 327 332 337 343 348 353 350 326 14 75 110 97 102 107 100 112 67 87 158 170 163 156 153 152 151 151 151 150 155 159 162 164 159 151 151 159 178 220 253 267 278 284 288 290 291 290 289 290 292 291 290
318 317 316 320 327 326 337 344 353 332 256 195 133 113 101 85 82 73 80 112 138 147 148 147 148 148 147 148 151 155 155 153 150 150 152 156 165 196 240 271 286 289 293 296 294 293 294 294 293 292 291 286 285 285
314 310 309 313 318 315 330 339 347 343 223 210 200 181 163 161 154 144 155 159 149 150 149 149 151 153 153 151 149 145 147 151 157 165 181 208 249 280 291 294 294 293 294 296 299 297 293 291 289 284 281 283 287 290
312 308 307 308 310 304 320 335 344 341 252 211 212 207 199 200 203 185 172 181 170 167 166 162 160 158 155 154 154 157 159 172 189 213 251 286 296 299 302 304 305 306 305 302 295 285 284 287 287 288 289 287 285 285
314 313 306 300 300 301 315 329 339 337 264 221 214 211 208 204 199 187 185 188 191 192 191 182 176 176 178 181 185 191 208 228 252 279 291 297 301 304 305 307 305 297 296 298 293 288 285 285 288 288 285 284 289 292
312 315 311 307 303 305 314 319 332 332 275 255 220 212 211 207 205 202 199 200 202 201 199 199 198 199 204 209 217 224 241 258 273 289 299 303 306 305 306 304 297 296 295 291 288 287 288 294 294 290 292 298 294 279
307 306 303 298 295 308 316 313 323 316 265 279 227 210 207 203 199 202 201 201 202 203 203 206 209 214 220 228 239 248 258 275 288 294 297 295 295 295 294 296 300 302 304 300 297 299 298 293 288 289 300 304 277 216
291 289 292 289 295 304 311 307 317 292 220 211 187 186 188 194 192 195 201 203 206 209 214 220 227 233 244 253 259 263 271 275 282 289 286 285 288 299 310 314 314 306 295 293 298 297 291 285 285 292 305 300 215 184
289 265 272 281 286 307 304 302 314 266 202 200 190 186 186 187 193 198 205 211 218 226 233 239 246 252 257 260 263 266 271 275 273 267 268 275 295 308 323 334 327 316 311 307 307 301 294 287 287 299 306 261 193 179
296 244 242 275 294 294 294 300 310 204 193 194 200 209 206 202 200 203 207 213 219 225 232 238 241 244 248 251 254 256 252 244 232 222 241 269 306 332 344 347 343 338 333 323 308 297 291 293 296 304 297 231 193 183
293 269 262 272 285 283 282 294 234 184 189 196 199 202 202 196 194 198 201 208 212 216 222 229 232 234 235 234 228 221 211 209 222 234 257 300 326 334 337 336 331 330 332 338 336 302 291 290 291 294 286 240 204 194
277 276 274 267 258 253 269 282 195 187 186 190 200 192 189 191 199 200 205 210 209 219 236 232 222 213 209 209 205 208 223 234 242 261 272 281 292 304 310 312 314 315 317 323 326 329 304 283 279 280 277 253 222 209
Height
5611 5601 5589 5576 5562 5546 5529 5512 5495 5476 5459 5444 5431 5419 5411 5408 5403 5401 5399 5394 5390 5385 5390 5386 5383 5381 5378 5375 5372 5373 5372 5372 5369 5370 5372 5374 5377 5381 5385 5393 5404 5409 5418 5426 5438 5443 5451 5465 5476 5484 5494 5501 5507 5513
5600 5589 5577 5563 5549 5533 5516 5499 5480 5462 5446 5432 5417 5407 5403 5398 5396 5393 5391 5386 5383 5379 5381 5379 5379 5374 5370 5370 5367 5367 5367 5366 5366 5368 5370 5372 5374 5379 5385 5391 5400 5408 5415 5424 5433 5441 5458 5465 5472 5478 5488 5495 5501 5507
5589 5578 5565 5551 5536 5519 5502 5485 5466 5449 5436 5422 5407 5399 5394 5390 5387 5384 5382 5380 5377 5371 5372 5374 5371 5369 5366 5366 5365 5365 5367 5366 5367 5368 5370 5372 5374 5379 5384 5390 5396 5398 5405 5415 5427 5438 5454 5465 5467 5474 5485 5492 5496 5502
5578 5565 5552 5539 5522 5506 5490 5472 5453 5439 5424 5410 5399 5392 5387 5382 5378 5374 5372 5372 5370 5367 5367 5366 5366 5365 5365 5365 5364 5364 5365 5367 5368 5368 5370 5372 5375 5379 5382 5385 5388 5392 5399 5411 5423 5435 5452 5458 5465 5473 5481 5489 5493 5497
5566 5553 5541 5526 5511 5495 5478 5460 5445 5430 5415 5402 5392 5386 5379 5372 5366 5365 5362 5364 5363 5365 5366 5366 5365 5365 5364 5364 5364 5366 5367 5367 5368 5369 5370 5371 5374 5376 5379 5382 5385 5391 5398 5408 5420 5435 5449 5455 5462 5470 5478 5485 5490 5493
5555 5543 5530 5516 5499 5483 5465 5450 5436 5421 5408 5396 5387 5381 5373 5364 5357 5354 5355 5357 5358 5359 5362 5363 5365 5365 5365 5364 5366 5366 5367 5367 5369 5369 5370 5372 5374 5376 5378 5381 5386 5392 5397 5407 5419 5434 5443 5451 5460 5468 5475 5481 5485 5490
5545 5533 5518 5503 5487 5470 5456 5442 5428 5413 5401 5391 5385 5378 5369 5360 5353 5349 5350 5353 5355 5358 5361 5364 5365 5366 5365 5366 5367 5367 5367 5368 5368 5370 5370 5372 5374 5375 5378 5382 5388 5393 5400 5407 5419 5430 5440 5449 5458 5465 5471 5478 5482 5486
5534 5521 5507 5492 5475 5464 5449 5435 5422 5408 5396 5389 5383 5376 5369 5362 5355 5352 5352 5354 5357 5359 5362 5365 5367 5367 5367 5368 5368 5368 5368 5368 5368 5371 5371 5373 5375 5378 5382 5386 5390 5396 5403 5411 5420 5429 5437 5445 5454 5461 5468 5473 5478 5483
5522 5509 5496 5480 5467 5455 5442 5430 5416 5404 5394 5388 5382 5376 5371 5367 5362 5359 5359 5359 5360 5363 5364 5367 5368 5369 5370 5371 5370 5370 5371 5371 5372 5372 5373 5376 5379 5383 5387 5390 5395 5401 5407 5414 5421 5428 5436 5443 5452 5458 5463 5469 5475 5480
5511 5499 5485 5471 5460 5447 5437 5425 5412 5400 5392 5387 5382 5377 5374 5370 5367 5365 5364 5364 5364 5366 5368 5369 5370 5371 5373 5373 5373 5373 5372 5374 5375 5375 5375 5380 5383 5387 5391 5395 5400 5405 5408 5416 5423 5431 5437 5445 5450 5454 5460 5465 5471 5477
5501 5489 5476 5463 5453 5443 5432 5420 5408 5398 5392 5387 5382 5378 5375 5372 5370 5368 5368 5368 5368 5370 5372 5372 5373 5374 5376 5376 5376 5376 5377 5376 5377 5379 5380 5383 5386 5390 5394 5399 5402 5406 5410 5413 5420 5428 5433 5441 5448 5455 5459 5464 5469 5474
5491 5479 5469 5457 5447 5437 5426 5415 5405 5395 5390 5386 5383 5380 5377 5375 5373 5371 5370 5371 5371 5373 5374 5375 5376 5377 5378 5379 5380 5380 5379 5380 5381 5383 5385 5387 5389 5392 5397 5401 5405 5408 5410 5414 5420 5427 5435 5441 5446 5451 5456 5461 5466 5472
5480 5471 5461 5451 5442 5432 5421 5412 5401 5392 5389 5385 5382 5380 5377 5376 5374 5373 5372 5373 5373 5374 5377 5378 5379 5380 5381 5382 5383 5383 5382 5384 5385 5386 5388 5391 5394 5397 5401 5404 5407 5411 5414 5418 5422 5428 5434 5439 5444 5448 5453 5458 5462 5467
5473 5463 5453 5445 5436 5426 5417 5408 5398 5390 5387 5385 5382 5379 5378 5376 5374 5374 5373 5374 5375 5377 5378 5380 5381 5383 5384 5386 5386 5387 5388 5388 5389 5390 5391 5393 5397 5402 5405 5409 5412 5415 5419 5422 5427 5431 5435 5440 5445 5450 5454 5458 5462 5466
5466 5456 5449 5440 5432 5423 5414 5405 5396 5389 5386 5384 5382 5380 5378 5375 5374 5374 5374 5375 5376 5378 5379 5382 5383 5384 5386 5388 5389 5391 5391 5392 5395 5397 5398 5399 5402 5406 5410 5414 5417 5421 5424 5427 5431 5435 5438 5442 5446 5450 5454 5458 5461 5464
5460 5452 5444 5436 5428 5420 5411 5403 5394 5388 5385 5383 5381 5379 5378 5376 5375 5374 5375 5376 5377 5379 5381 5382 5384 5386 5388 5390 5392 5394 5396 5398 5399 5401 5403 5405 5408 5412 5415 5419 5422 5425 5428 5431 5434 5437 5441 5444 5447 5450 5453 5456 5459 5461
5452 5446 5439 5431 5423 5416 5409 5401 5393 5387 5385 5383 5381 5379 5377 5375 5375 5375 5376 5377 5379 5380 5382 5383 5385 5387 5389 5391 5394 5396 5399 5401 5404 5406 5407 5410 5413 5417 5420 5423 5425 5428 5430 5433 5435 5438 5441 5443 5446 5449 5451 5453 5454 5455
5447 5440 5433 5427 5420 5413 5407 5400 5392 5386 5384 5382 5380 5379 5377 5376 5375 5376 5377 5378 5379 5381 5382 5383 5385 5388 5390 5393 5395 5398 5401 5404 5407 5409 5411 5414 5417 5421 5423 5425 5428 5430 5433 5435 5438 5440 5442 5444 5446 5447 5448 5449 5450 5451
5441 5435 5429 5423 5417 5411 5405 5399 5392 5387 5385 5382 5380 5378 5377 5376 5375 5376 5376 5377 5378 5380 5382 5384 5385 5388 5391 5393 5396 5398 5402 5406 5409 5412 5414 5417 5420 5423 5425 5427 5430 5432 5434 5437 5439 5440 5441 5443 5444 5444 5445 5445 5445 5445
5434 5429 5424 5419 5414 5409 5404 5398 5393 5388 5386 5383 5381 5378 5377 5376 5375 5376 5376 5377 5378 5380 5382 5384 5385 5388 5391 5394 5396 5399 5402 5406 5409 5413 5416 5419 5422 5424 5426 5428 5430 5432 5434 5435 5437 5438 5439 5439 5439 5439 5438 5438 5436 5435
5428 5424 5419 5416 5410 5406 5402 5398 5393 5389 5387 5385 5383 5380 5378 5377 5376 5376 5377 5377 5379 5380 5381 5384 5386 5388 5391 5394 5398 5402 5405 5409 5412 5415 5418 5421 5423 5425 5427 5429 5431 5433 5434 5434 5435 5435 5435 5435 5434 5432 5431 5429 5428 5426
5423 5419 5415 5411 5407 5404 5400 5397 5394 5391 5390 5388 5387 5384 5383 5381 5379 5378 5378 5380 5381 5381 5383 5385 5388 5391 5395 5399 5402 5405 5408 5412 5415 5418 5420 5422 5425 5427 5428 5430 5431 5431 5432 5431 5431 5430 5428 5427 5426 5423 5421 5419 5416 5413
5417 5413 5410 5407 5404 5401 5399 5395 5393 5390 5389 5390 5390 5387 5387 5387 5387 5387 5388 5389 5389 5389 5389 5391 5393 5396 5399 5402 5406 5409 5411 5414 5417 5419 5421 5423 5425 5426 5427 5427 5427 5427 5426 5425 5423 5422 5420 5417 5414 5412 5409 5406 5403 5401
5410 5407 5404 5402 5400 5397 5395 5392 5390 5387 5387 5388 5389 5390 5389 5389 5390 5392 5394 5396 5396 5396 5397 5398 5400 5402 5404 5406 5409 5411 5413 5416 5418 5420 5421 5423 5423 5424 5423 5423 5422 5421 5419 5417 5414 5411 5408 5405 5403 5401 5400 5398 5397 5395
5406 5402 5400 5397 5395 5394 5392 5389 5387 5385 5384 5384 5386 5388 5389 5390 5392 5393 5394 5397 5398 5399 5400 5402 5403 5405 5407 5409 5411 5413 5415 5416 5418 5419 5420 5420 5420 5419 5419 5417 5415 5412 5409 5406 5404 5401 5399 5398 5396 5395 5394 5393 5392 5391
5400 5397 5396 5393 5391 5390 5388 5386 5384 5382 5381 5381 5382 5385 5387 5389 5390 5392 5393 5395 5398 5400 5402 5403 5405 5407 5409 5410 5412 5413 5415 5415 5416 5416 5416 5416 5415 5414 5412 5410 5407 5404 5400 5398 5397 5396 5395 5394 5393 5391 5390 5389 5388 5386
5396 5393 5391 5389 5387 5386 5385 5383 5381 5380 5379 5379 5379 5380 5383 5386 5388 5391 5392 5394 5396 5398 5400 5402 5405 5406 5408 5409 5411 5412 5412 5413 5413 5413 5412 5410 5408 5406 5404 5402 5400 5398 5396 5395 5394 5393 5392 5390 5389 5388 5386 5385 5383 5382
5392 5389 5388 5386 5385 5383 5382 5380 5378 5377 5377 5377 5377 5377 5379 5382 5386 5388 5390 5392 5395 5397 5399 5400 5402 5404 5405 5407 5408 5409 5409 5409 5408 5408 5407 5406 5404 5402 5400 5398 5396 5395 5393 5392 5391 5390 5389 5387 5386 5385 5383 5381 5380 5380
5386 5385 5384 5383 5381 5380 5379 5377 5376 5375 5376 5376 5376 5377 5378 5380 5383 5386 5388 5390 5393 5395 5396 5398 5400 5401 5402 5403 5404 5405 5405 5405 5405 5404 5403 5401 5400 5399 5397 5395 5393 5392 5391 5390 5388 5387 5385 5384 5383 5382 5381 5379 5379 5379
5380 5380 5380 5379 5378 5377 5376 5375 5374 5373 5374 5375 5376 5377 5378 5380 5381 5383 5386 5388 5390 5392 5393 5395 5396 5397 5398 5399 5400 5400 5401 5400 5400 5400 5399 5399 5398 5397 5395 5393 5391 5390 5388 5386 5385 5384 5383 5382 5381 5380 5379 5378 5378 5379
5375 5375 5375 5375 5375 5374 5373 5372 5371 5371 5372 5374 5375 5376 5377 5378 5380 5381 5383 5385 5387 5388 5390 5391 5392 5393 5394 5394 5395 5395 5396 5396 5397 5397 5397 5397 5396 5395 5393 5391 5390 5388 5386 5384 5383 5382 5381 5380 5380 5379 5378 5377 5378 5379
5371 5371 5371 5371 5372 5371 5370 5370 5369 5370 5372 5373 5373 5374 5376 5377 5379 5380 5382 5383 5384 5386 5387 5388 5388 5389 5390 5391 5391 5392 5393 5393 5394 5394 5394 5394 5393 5392 5391 5390 5389 5387 5385 5383 5381 5380 5379 5379 5378 5377 5377 5377 5377 5378
5367 5367 5367 5367 5368 5368 5368 5368 5368 5370 5371 5372 5372 5373 5375 5377 5378 5380 5381 5382 5383 5384 5385 5385 5386 5387 5388 5388 5389 5390 5391 5391 5392 5391 5391 5391 5390 5389 5388 5386 5385 5384 5383 5381 5379 5378 5377 5376 5376 5376 5376 5376 5376 5377